Location: Unspecified
(38.9820°N, 94.4650°W)
Time: 08:50:18
(UTC-05:00)

CZ-3 Stage 3 - Visible Passes

Search period start: 24 August 2016 00:00
Search period end: 03 September 2016 00:00
Orbit: 480 x 34724 km, 30.5° (Epoch: 21 August)

Date Brightness Start Highest point End Pass type
(mag) Time Alt. Az. Time Alt. Az. Time Alt. Az.
24 Aug 4.6 21:23:10 10° W 22:18:27 46° SW 22:21:56 33° SSE visible
27 Aug 4.6 21:13:47 10° W 22:09:52 45° SW 22:13:37 31° SSE visible
30 Aug 4.7 21:04:21 10° W 22:01:15 44° SW 22:05:18 29° SSE visible
02 Sep 4.8 20:54:52 10° W 21:52:37 43° SW 21:57:01 27° SSE visible
